Weather History for KGBG - January, 2014

Change the Weather History Date:

Friday, January 24, 2014

  Actual Average Record
Temperature  
Mean Temperature 14 °F -  
Max Temperature 32 °F 33 °F 68 °F (1950)
Min Temperature -4 °F 15 °F -13 °F (1963)
Degree Days  
Heating Degree Days 51    
Moisture  
Dew Point 8 °F    
Average Humidity 69    
Maximum Humidity 86    
Minimum Humidity 58    
Precipitation  
Precipitation 0.00 in - - ()
Sea Level Pressure  
Sea Level Pressure 30.03 in    
Wind  
Wind Speed 14 mph (SSW)    
Max Wind Speed 34 mph    
Max Gust Speed 41 mph    
Visibility 10 miles    
Events Snow    
Averages and records for this station are not official NWS values.
T = Trace of Precipitation, MM = Missing Value Source: NWS Daily Summary

Daily Weather History Graph

Daily Weather History Graph

Search for Another Location

Airport or City:

Trip Planner

Search our weather history database for the weather conditions in past years. The results will help you decide how hot, cold, wet, or windy it might be!

Date:

Astronomy

Jan. 24, 2014 Rise Set
Actual Time 7:19 AM CST 5:09 PM CST
Civil Twilight 6:49 AM CST 5:38 PM CST
Nautical Twilight 6:16 AM CST 6:12 PM CST
Astronomical Twilight 5:43 AM CST 6:44 PM CST
Moon 12:45 AM CST (1/24) 11:28 AM CST (1/24)
Length of Visible Light 10h 49m
Length of Day
9h 50m
Last Quarter, 44% of the Moon is Illuminated
Jan 24
Last Quarter
Jan 30
New
Feb 6
First Quarter
Feb 14
Full
Feb 22
Last Quarter

Hourly Weather History & Observations

Time (CST) Temp. Windchill Dew Point Humidity Pressure Visibility Wind Dir Wind Speed Gust Speed Precip Events Conditions
12:15 AM -4.9 °F -15.6 °F -8.1 °F 86% 30.57 in 10.0 mi South 4.6 mph - N/A   Clear
12:35 AM -4.5 °F -18.4 °F -7.8 °F 86% 30.55 in 10.0 mi SSW 6.9 mph - N/A   Clear
12:55 AM -4.4 °F -19.5 °F -7.8 °F 85% 30.54 in 10.0 mi SSW 8.1 mph - N/A   Clear
1:15 AM -4.7 °F -18.6 °F -8.0 °F 86% 30.54 in 10.0 mi SSW 6.9 mph - N/A   Clear
1:35 AM -4.0 °F -19.0 °F -7.6 °F 85% 30.53 in 10.0 mi SSW 8.1 mph - N/A   Clear
1:55 AM -4.0 °F -19.0 °F -7.6 °F 85% 30.52 in 10.0 mi SSW 8.1 mph - N/A   Clear
2:15 AM -3.3 °F -18.2 °F -6.7 °F 85% 30.51 in 10.0 mi SSW 8.1 mph - N/A   Clear
2:35 AM -2.6 °F -16.0 °F -6.7 °F 82% 30.50 in 10.0 mi SSW 6.9 mph - N/A   Clear
2:55 AM -2.4 °F -15.8 °F -6.5 °F 82% 30.49 in 10.0 mi SSW 6.9 mph - N/A   Clear
3:15 AM -2.4 °F -17.1 °F -6.5 °F 82% 30.47 in 10.0 mi South 8.1 mph - N/A   Clear
3:35 AM -1.5 °F -16.0 °F -5.8 °F 82% 30.45 in 10.0 mi South 8.1 mph - N/A   Clear
3:55 AM -0.9 °F -15.3 °F -5.6 °F 81% 30.44 in 10.0 mi South 8.1 mph - N/A   Clear
4:15 AM -0.8 °F -16.2 °F -5.3 °F 81% 30.43 in 10.0 mi South 9.2 mph - N/A   Clear
4:35 AM -0.4 °F -15.7 °F -5.1 °F 81% 30.41 in 10.0 mi South 9.2 mph - N/A   Clear
4:55 AM -0.2 °F -16.5 °F -4.9 °F 81% 30.39 in 10.0 mi South 10.4 mph - N/A   Clear
5:15 AM 1.4 °F -15.3 °F -4.2 °F 77% 30.37 in 10.0 mi South 11.5 mph - N/A   Clear
5:35 AM 1.9 °F -16.2 °F -3.8 °F 77% 30.36 in 10.0 mi South 13.8 mph - N/A   Clear
5:55 AM 2.7 °F -15.3 °F -3.1 °F 77% 30.35 in 10.0 mi South 13.8 mph - N/A   Clear
6:15 AM 2.8 °F -15.0 °F -3.1 °F 76% 30.33 in 10.0 mi South 13.8 mph - N/A   Clear
6:35 AM 4.3 °F -12.5 °F -1.7 °F 76% 30.32 in 10.0 mi South 12.7 mph - N/A   Clear
6:55 AM 4.8 °F -13.8 °F -1.7 °F 75% 30.31 in 10.0 mi SSW 16.1 mph 21.9 mph N/A   Clear
7:15 AM 4.5 °F -13.7 °F -2.0 °F 75% 30.30 in 10.0 mi South 15.0 mph 19.6 mph N/A   Clear
7:35 AM 5.7 °F -13.2 °F -1.3 °F 73% 30.28 in 10.0 mi South 17.3 mph 25.3 mph N/A   Clear
7:55 AM 5.5 °F -12.3 °F -1.5 °F 73% 30.27 in 10.0 mi South 15.0 mph - N/A   Clear
8:15 AM 5.5 °F -11.6 °F -1.3 °F 73% 30.25 in 10.0 mi South 13.8 mph 21.9 mph N/A   Clear
8:35 AM 7.5 °F -12.4 °F -0.4 °F 70% 30.22 in 10.0 mi South 20.7 mph - N/A   Clear
8:55 AM 9.5 °F -10.7 °F 0.5 °F 67% 30.19 in 10.0 mi South 23.0 mph 28.8 mph N/A   Clear
9:15 AM 11.1 °F -9.3 °F 1.6 °F 66% 30.17 in 10.0 mi South 25.3 mph 31.1 mph N/A   Clear
9:35 AM 11.3 °F -9.4 °F 1.6 °F 65% 30.15 in 10.0 mi South 26.5 mph 33.4 mph N/A   Clear
9:55 AM 13.1 °F -7.0 °F 2.7 °F 63% 30.12 in 10.0 mi SSW 26.5 mph 34.5 mph N/A   Clear
10:15 AM 15.3 °F -4.5 °F 3.6 °F 60% 30.10 in 10.0 mi SSW 27.6 mph 39.1 mph N/A   Clear
10:35 AM 17.1 °F -3.8 °F 4.5 °F 58% 30.08 in 10.0 mi SSW 34.5 mph 39.1 mph N/A   Clear
10:55 AM 16.7 °F -3.7 °F 5.0 °F 60% 30.05 in 10.0 mi SSW 32.2 mph 41.4 mph N/A   Clear
11:15 AM 17.6 °F -1.0 °F 6.1 °F 61% 30.03 in 10.0 mi SSW 26.5 mph 39.1 mph N/A   Clear
11:35 AM 18.7 °F 0.5 °F 7.9 °F 63% 30.00 in 10.0 mi SSW 26.5 mph 35.7 mph N/A   Clear
11:55 AM 20.1 °F 0.9 °F 8.4 °F 61% 29.97 in 10.0 mi SSW 32.2 mph 40.3 mph N/A   Clear
12:15 PM 20.1 °F 1.8 °F 8.6 °F 61% 29.95 in 10.0 mi SSW 28.8 mph 41.4 mph N/A   Clear
12:35 PM 21.2 °F 5.2 °F 9.7 °F 61% 29.95 in 10.0 mi SW 21.9 mph 31.1 mph N/A   Mostly Cloudy
12:55 PM 22.1 °F 6.8 °F 10.9 °F 62% 29.94 in 10.0 mi SSW 20.7 mph 28.8 mph N/A   Overcast
1:15 PM 23.0 °F 9.2 °F 11.8 °F 62% 29.91 in 10.0 mi SSW 17.3 mph 28.8 mph N/A   Overcast
1:35 PM 24.8 °F 11.1 °F 12.9 °F 61% 29.89 in 10.0 mi SSW 18.4 mph 29.9 mph N/A   Overcast
1:55 PM 25.5 °F 10.0 °F 13.3 °F 60% 29.86 in 10.0 mi SSW 25.3 mph 32.2 mph N/A   Overcast
2:15 PM 25.9 °F 10.4 °F 12.9 °F 58% 29.86 in 10.0 mi SW 25.3 mph 32.2 mph N/A   Overcast
2:35 PM 26.4 °F 12.1 °F 13.6 °F 59% 29.84 in 10.0 mi SSW 21.9 mph 31.1 mph N/A   Overcast
2:55 PM 26.6 °F 13.8 °F 14.5 °F 60% 29.84 in 10.0 mi SSW 17.3 mph 25.3 mph N/A   Overcast
3:15 PM 27.5 °F 14.6 °F 14.9 °F 59% 29.83 in 10.0 mi SW 18.4 mph 26.5 mph N/A   Overcast
3:35 PM 28.2 °F 15.9 °F 15.6 °F 59% 29.82 in 10.0 mi SW 17.3 mph 23.0 mph N/A   Overcast
3:55 PM 28.6 °F 15.6 °F 15.3 °F 58% 29.82 in 10.0 mi SW 19.6 mph 25.3 mph N/A   Overcast
4:15 PM 28.4 °F 16.2 °F 15.6 °F 59% 29.81 in 10.0 mi SW 17.3 mph 21.9 mph N/A   Overcast
4:35 PM 28.6 °F 16.8 °F 16.0 °F 59% 29.80 in 10.0 mi SW 16.1 mph 24.2 mph N/A   Overcast
4:55 PM 28.8 °F 16.6 °F 16.7 °F 61% 29.78 in 10.0 mi SSW 17.3 mph 23.0 mph N/A   Overcast
5:15 PM 28.8 °F 17.0 °F 16.9 °F 61% 29.77 in 10.0 mi SSW 16.1 mph - N/A   Overcast
5:35 PM 28.8 °F 16.6 °F 16.9 °F 61% 29.76 in 10.0 mi SSW 17.3 mph - N/A   Overcast
5:55 PM 28.8 °F 16.6 °F 16.9 °F 61% 29.76 in 10.0 mi SSW 17.3 mph - N/A   Overcast
6:15 PM 28.9 °F 16.5 °F 16.7 °F 60% 29.76 in 10.0 mi SSW 18.4 mph - N/A   Overcast
6:35 PM 29.1 °F 16.7 °F 17.2 °F 61% 29.74 in 10.0 mi SSW 18.4 mph 23.0 mph N/A   Overcast
6:55 PM 29.3 °F 17.0 °F 17.4 °F 61% 29.73 in 10.0 mi SSW 18.4 mph 25.3 mph N/A   Overcast
7:15 PM 30.0 °F 17.2 °F 17.4 °F 59% 29.73 in 10.0 mi SW 20.7 mph 29.9 mph N/A   Overcast
7:35 PM 30.6 °F 17.9 °F 18.7 °F 61% 29.71 in 10.0 mi SW 20.7 mph 25.3 mph N/A   Overcast
7:55 PM 30.9 °F 18.4 °F 20.1 °F 64% 29.69 in 10.0 mi SSW 20.7 mph 28.8 mph N/A   Overcast
8:15 PM 30.9 °F 18.7 °F 20.3 °F 65% 29.69 in 10.0 mi SW 19.6 mph 26.5 mph N/A   Overcast
8:35 PM 30.9 °F 19.4 °F 20.8 °F 66% 29.67 in 10.0 mi SW 17.3 mph 25.3 mph N/A   Overcast
8:55 PM 31.1 °F 18.6 °F 19.9 °F 63% 29.66 in 10.0 mi SW 20.7 mph 27.6 mph N/A   Overcast
9:15 PM 31.6 °F 20.7 °F 19.6 °F 61% 29.65 in 10.0 mi SW 16.1 mph 24.2 mph N/A   Overcast
9:35 PM 31.3 °F 19.9 °F 20.8 °F 65% 29.64 in 10.0 mi SW 17.3 mph 24.2 mph N/A   Overcast
9:55 PM 31.5 °F 21.4 °F 21.0 °F 65% 29.63 in 10.0 mi SW 13.8 mph - N/A   Overcast
10:15 PM 31.5 °F 20.9 °F 21.6 °F 67% 29.61 in 10.0 mi SW 15.0 mph 21.9 mph N/A   Overcast
10:35 PM 31.5 °F 19.8 °F 23.9 °F 74% 29.60 in 5.0 mi SW 18.4 mph 29.9 mph N/A Snow Light Snow
10:55 PM 30.0 °F 20.0 °F 25.5 °F 83% 29.59 in 7.0 mi SW 12.7 mph - N/A Snow Light Snow
11:15 PM 31.6 °F 20.7 °F 22.8 °F 70% 29.56 in 10.0 mi SW 16.1 mph 23.0 mph N/A   Overcast
11:35 PM 32.0 °F 21.6 °F 22.8 °F 69% 29.55 in 10.0 mi SW 15.0 mph 21.9 mph N/A   Overcast
11:55 PM 32.4 °F 22.5 °F 23.5 °F 70% 29.55 in 10.0 mi SW 13.8 mph 19.6 mph N/A   Overcast